Time,TemperatureF,DewpointF,PressureIn,WindDirection,WindDirectionDegrees,WindSpeedMPH,WindSpeedGustMPH,Humidity,HourlyPrecipIn,Conditions,Clouds,dailyrainin,SoftwareType,DateUTC
2013-10-18 00:00:00,56.5,50.7,29.96,SE,133,3.0,3.0,81,0.00,,,0.00,Wunderground v.1.15,2013-10-18 05:00:00,
2013-10-18 00:10:00,56.8,50.7,29.97,SE,133,0.0,1.0,80,0.00,,,0.00,Wunderground v.1.15,2013-10-18 05:10:00,
2013-10-18 00:20:00,57.1,51.0,29.97,SE,133,0.0,1.0,80,0.00,,,0.00,Wunderground v.1.15,2013-10-18 05:20:00,
2013-10-18 00:30:00,57.0,51.2,29.97,SE,133,0.0,1.0,81,0.00,,,0.00,Wunderground v.1.15,2013-10-18 05:30:00,
2013-10-18 00:40:00,56.7,50.9,29.97,SE,133,1.0,2.0,81,0.00,,,0.00,Wunderground v.1.15,2013-10-18 05:40:00,
2013-10-18 00:50:00,56.7,50.6,29.96,SE,133,1.0,1.0,80,0.00,,,0.00,Wunderground v.1.15,2013-10-18 05:50:00,
2013-10-18 01:00:00,56.6,50.5,29.96,SE,133,0.0,2.0,80,0.00,,,0.00,Wunderground v.1.15,2013-10-18 06:00:00,
2013-10-18 01:10:00,56.6,50.8,29.96,SE,133,1.0,2.0,81,0.00,,,0.00,Wunderground v.1.15,2013-10-18 06:10:00,
2013-10-18 01:20:00,56.6,50.5,29.96,SE,133,2.0,5.0,80,0.00,,,0.00,Wunderground v.1.15,2013-10-18 06:20:00,
2013-10-18 01:30:00,56.7,50.6,29.96,SE,133,3.0,3.0,80,0.00,,,0.00,Wunderground v.1.15,2013-10-18 06:30:00,
2013-10-18 01:40:00,56.6,50.8,29.96,SE,133,1.0,1.0,81,0.00,,,0.00,Wunderground v.1.15,2013-10-18 06:40:00,
2013-10-18 01:50:00,56.3,50.9,29.96,SE,133,0.0,1.0,82,0.00,,,0.00,Wunderground v.1.15,2013-10-18 06:50:00,
2013-10-18 02:00:00,56.2,50.8,29.95,SE,133,1.0,1.0,82,0.00,,,0.00,Wunderground v.1.15,2013-10-18 07:00:00,
2013-10-18 02:10:00,56.0,50.9,29.95,SE,134,0.0,1.0,83,0.00,,,0.00,Wunderground v.1.15,2013-10-18 07:10:00,
2013-10-18 02:20:00,55.8,50.7,29.95,SE,133,0.0,1.0,83,0.00,,,0.00,Wunderground v.1.15,2013-10-18 07:20:00,
2013-10-18 02:30:00,55.5,50.7,29.94,SE,133,1.0,4.0,84,0.00,,,0.00,Wunderground v.1.15,2013-10-18 07:30:00,
2013-10-18 02:40:00,55.3,50.5,29.94,SE,133,2.0,2.0,84,0.00,,,0.00,Wunderground v.1.15,2013-10-18 07:40:00,
2013-10-18 02:50:00,55.3,50.9,29.94,SE,133,0.0,1.0,85,0.00,,,0.00,Wunderground v.1.15,2013-10-18 07:50:00,
2013-10-18 03:00:00,55.1,50.7,29.95,SE,133,0.0,1.0,85,0.00,,,0.00,Wunderground v.1.15,2013-10-18 08:00:00,
2013-10-18 03:10:00,55.0,50.6,29.94,SE,133,0.0,1.0,85,0.00,,,0.00,Wunderground v.1.15,2013-10-18 08:10:00,
2013-10-18 03:20:00,54.7,50.9,29.94,SE,133,0.0,1.0,87,0.00,,,0.00,Wunderground v.1.15,2013-10-18 08:20:00,
2013-10-18 03:30:00,54.3,50.5,29.94,SE,133,0.0,1.0,87,0.00,,,0.00,Wunderground v.1.15,2013-10-18 08:30:00,
2013-10-18 03:40:00,54.2,50.4,29.93,SE,133,0.0,1.0,87,0.00,,,0.00,Wunderground v.1.15,2013-10-18 08:40:00,
2013-10-18 03:50:00,54.2,50.4,29.93,SE,133,0.0,1.0,87,0.00,,,0.00,Wunderground v.1.15,2013-10-18 08:50:00,
2013-10-18 04:00:00,54.3,50.8,29.92,SE,133,0.0,1.0,88,0.00,,,0.00,Wunderground v.1.15,2013-10-18 09:00:00,
2013-10-18 04:10:00,54.3,50.8,29.92,SE,133,0.0,1.0,88,0.00,,,0.00,Wunderground v.1.15,2013-10-18 09:10:00,
2013-10-18 04:20:00,54.5,51.0,29.92,SE,133,0.0,1.0,88,0.00,,,0.00,Wunderground v.1.15,2013-10-18 09:20:00,
2013-10-18 04:30:00,54.8,51.3,29.92,SE,133,0.0,1.0,88,0.00,,,0.00,Wunderground v.1.15,2013-10-18 09:30:00,
2013-10-18 04:40:00,54.9,51.4,29.91,SE,133,0.0,1.0,88,0.00,,,0.00,Wunderground v.1.15,2013-10-18 09:40:00,
2013-10-18 04:50:00,54.9,51.4,29.91,SE,133,0.0,1.0,88,0.00,,,0.00,Wunderground v.1.15,2013-10-18 09:50:00,
2013-10-18 05:00:00,55.1,51.6,29.91,SE,133,0.0,1.0,88,0.00,,,0.00,Wunderground v.1.15,2013-10-18 10:00:00,
2013-10-18 05:10:00,55.4,51.9,29.91,SE,133,0.0,1.0,88,0.00,,,0.00,Wunderground v.1.15,2013-10-18 10:10:00,
2013-10-18 05:20:00,55.6,51.8,29.91,SE,133,0.0,1.0,87,0.00,,,0.00,Wunderground v.1.15,2013-10-18 10:20:00,
2013-10-18 05:30:00,55.8,52.0,29.91,SE,133,0.0,1.0,87,0.00,,,0.00,Wunderground v.1.15,2013-10-18 10:30:00,
2013-10-18 05:40:00,55.8,52.0,29.92,SE,133,0.0,1.0,87,0.00,,,0.00,Wunderground v.1.15,2013-10-18 10:40:00,
2013-10-18 05:50:00,55.8,52.0,29.92,SE,133,0.0,1.0,87,0.00,,,0.00,Wunderground v.1.15,2013-10-18 10:50:00,
2013-10-18 06:00:00,55.9,52.4,29.92,SE,133,0.0,1.0,88,0.00,,,0.00,Wunderground v.1.15,2013-10-18 11:00:00,
2013-10-18 06:10:00,55.9,52.4,29.91,SE,133,0.0,1.0,88,0.00,,,0.00,Wunderground v.1.15,2013-10-18 11:10:00,
2013-10-18 06:20:00,56.0,52.8,29.92,SE,133,0.0,1.0,89,0.00,,,0.00,Wunderground v.1.15,2013-10-18 11:20:00,
2013-10-18 06:30:00,55.9,52.7,29.91,SE,133,0.0,1.0,89,0.00,,,0.00,Wunderground v.1.15,2013-10-18 11:30:00,
2013-10-18 06:40:00,55.8,52.6,29.92,SE,133,0.0,1.0,89,0.00,,,0.00,Wunderground v.1.15,2013-10-18 11:40:00,
2013-10-18 06:50:00,55.9,52.7,29.91,SE,133,0.0,1.0,89,0.00,,,0.00,Wunderground v.1.15,2013-10-18 11:50:00,
2013-10-18 07:00:00,56.0,52.8,29.91,SE,133,0.0,1.0,89,0.00,,,0.00,Wunderground v.1.15,2013-10-18 12:00:00,
2013-10-18 07:10:00,56.2,52.7,29.91,SE,133,2.0,5.0,88,0.00,,,0.00,Wunderground v.1.15,2013-10-18 12:10:00,
2013-10-18 07:20:00,56.4,52.9,29.91,SE,133,4.0,6.0,88,0.00,,,0.00,Wunderground v.1.15,2013-10-18 12:20:00,
2013-10-18 07:30:00,56.7,52.6,29.91,SE,133,4.0,5.0,86,0.00,,,0.00,Wunderground v.1.15,2013-10-18 12:30:00,
2013-10-18 07:40:00,56.8,52.7,29.91,SE,133,5.0,5.0,86,0.00,,,0.00,Wunderground v.1.15,2013-10-18 12:40:00,
2013-10-18 07:50:00,56.8,52.7,29.92,SE,133,1.0,1.0,86,0.00,,,0.00,Wunderground v.1.15,2013-10-18 12:50:00,
2013-10-18 08:00:00,56.8,53.0,29.92,SE,133,0.0,1.0,87,0.00,,,0.00,Wunderground v.1.15,2013-10-18 13:00:00,
2013-10-18 08:10:00,56.9,53.1,29.92,SE,133,0.0,1.0,87,0.00,,,0.00,Wunderground v.1.15,2013-10-18 13:10:00,
2013-10-18 08:20:00,57.1,53.3,29.92,SE,133,0.0,1.0,87,0.00,,,0.00,Wunderground v.1.15,2013-10-18 13:20:00,
2013-10-18 08:30:00,57.2,53.0,29.93,SE,133,0.0,1.0,86,0.00,,,0.00,Wunderground v.1.15,2013-10-18 13:30:00,
2013-10-18 08:40:00,57.5,53.3,29.93,SE,133,0.0,1.0,86,0.00,,,0.00,Wunderground v.1.15,2013-10-18 13:40:00,
2013-10-18 08:50:00,57.7,53.5,29.93,SE,133,0.0,1.0,86,0.00,,,0.00,Wunderground v.1.15,2013-10-18 13:50:00,
2013-10-18 09:00:00,58.0,53.8,29.93,SE,133,0.0,1.0,86,0.00,,,0.00,Wunderground v.1.15,2013-10-18 14:00:00,
2013-10-18 09:10:00,58.7,54.2,29.93,SE,133,1.0,1.0,85,0.00,,,0.00,Wunderground v.1.15,2013-10-18 14:10:00,
2013-10-18 09:20:00,59.1,54.3,29.94,SE,133,0.0,1.0,84,0.00,,,0.00,Wunderground v.1.15,2013-10-18 14:20:00,
2013-10-18 09:30:00,59.4,54.6,29.93,SE,134,1.0,6.0,84,0.00,,,0.00,Wunderground v.1.15,2013-10-18 14:30:00,
2013-10-18 09:40:00,59.8,54.6,29.94,SE,134,5.0,8.0,83,0.00,,,0.00,Wunderground v.1.15,2013-10-18 14:40:00,
2013-10-18 09:50:00,60.2,54.7,29.95,SE,136,3.0,5.0,82,0.00,,,0.00,Wunderground v.1.15,2013-10-18 14:50:00,
2013-10-18 10:00:00,60.4,54.5,29.94,SE,140,5.0,9.0,81,0.00,,,0.00,Wunderground v.1.15,2013-10-18 15:00:00,
2013-10-18 10:10:00,60.5,54.6,29.94,SE,142,5.0,5.0,81,0.00,,,0.00,Wunderground v.1.15,2013-10-18 15:10:00,
2013-10-18 10:20:00,60.7,54.5,29.94,SE,145,4.0,7.0,80,0.00,,,0.00,Wunderground v.1.15,2013-10-18 15:20:00,
2013-10-18 10:30:00,60.8,54.6,29.94,SSE,148,6.0,7.0,80,0.00,,,0.00,Wunderground v.1.15,2013-10-18 15:30:00,
2013-10-18 10:40:00,61.0,54.8,29.94,SSE,148,4.0,4.0,80,0.00,,,0.00,Wunderground v.1.15,2013-10-18 15:40:00,
2013-10-18 10:50:00,61.2,55.0,29.94,North,360,3.0,3.0,80,0.00,,,0.00,Wunderground v.1.15,2013-10-18 15:50:00,
2013-10-18 11:00:00,61.5,55.3,29.94,SSE,148,1.0,1.0,80,0.00,,,0.00,Wunderground v.1.15,2013-10-18 16:00:00,
2013-10-18 11:10:00,61.9,55.7,29.93,SSE,148,1.0,1.0,80,0.00,,,0.00,Wunderground v.1.15,2013-10-18 16:10:00,
2013-10-18 11:20:00,62.6,56.0,29.93,SSE,148,1.0,1.0,79,0.00,,,0.00,Wunderground v.1.15,2013-10-18 16:20:00,
2013-10-18 11:30:00,63.4,56.1,29.93,SSE,150,4.0,6.0,77,0.00,,,0.00,Wunderground v.1.15,2013-10-18 16:30:00,
2013-10-18 11:40:00,64.0,56.6,29.93,SSE,156,6.0,6.0,77,0.00,,,0.00,Wunderground v.1.15,2013-10-18 16:40:00,
2013-10-18 11:50:00,64.3,56.6,29.92,SE,145,5.0,5.0,76,0.00,,,0.00,Wunderground v.1.15,2013-10-18 16:50:00,
2013-10-18 12:00:00,64.4,56.3,29.92,SE,144,4.0,7.0,75,0.00,,,0.00,Wunderground v.1.15,2013-10-18 17:00:00,
2013-10-18 12:10:00,64.5,56.4,29.92,SE,146,7.0,7.0,75,0.00,,,0.00,Wunderground v.1.15,2013-10-18 17:10:00,
2013-10-18 12:20:00,64.6,56.5,29.91,SE,146,7.0,7.0,75,0.00,,,0.00,Wunderground v.1.15,2013-10-18 17:20:00,
2013-10-18 12:30:00,64.9,57.2,29.91,SE,144,5.0,6.0,76,0.00,,,0.00,Wunderground v.1.15,2013-10-18 17:30:00,
2013-10-18 12:40:00,65.7,57.2,29.90,SE,144,9.0,9.0,74,0.00,,,0.00,Wunderground v.1.15,2013-10-18 17:40:00,
2013-10-18 12:50:00,66.9,58.3,29.89,SSE,148,8.0,8.0,74,0.00,,,0.00,Wunderground v.1.15,2013-10-18 17:50:00,
2013-10-18 13:00:00,67.2,58.6,29.89,SSE,148,10.0,10.0,74,0.00,,,0.00,Wunderground v.1.15,2013-10-18 18:00:00,
2013-10-18 13:10:00,67.8,58.4,29.89,SSE,148,9.0,9.0,72,0.00,,,0.00,Wunderground v.1.15,2013-10-18 18:10:00,
2013-10-18 13:20:00,68.5,59.1,29.88,SE,146,7.0,7.0,72,0.00,,,0.00,Wunderground v.1.15,2013-10-18 18:20:00,
2013-10-18 13:30:00,68.9,59.1,29.88,SSE,151,6.0,6.0,71,0.00,,,0.00,Wunderground v.1.15,2013-10-18 18:30:00,
2013-10-18 13:40:00,69.5,59.7,29.87,South,170,5.0,10.0,71,0.00,,,0.00,Wunderground v.1.15,2013-10-18 18:40:00,
2013-10-18 13:50:00,69.5,59.7,29.87,South,170,7.0,7.0,71,0.00,,,0.00,Wunderground v.1.15,2013-10-18 18:50:00,
2013-10-18 14:00:00,69.5,59.7,29.86,SSE,165,4.0,6.0,71,0.00,,,0.00,Wunderground v.1.15,2013-10-18 19:00:00,
2013-10-18 14:10:00,69.4,59.6,29.86,South,172,3.0,3.0,71,0.00,,,0.00,Wunderground v.1.15,2013-10-18 19:10:00,
2013-10-18 14:20:00,69.9,60.1,29.85,South,173,0.0,1.0,71,0.00,,,0.00,Wunderground v.1.15,2013-10-18 19:20:00,
2013-10-18 14:30:00,70.2,60.4,29.84,South,173,0.0,1.0,71,0.00,,,0.00,Wunderground v.1.15,2013-10-18 19:30:00,
2013-10-18 14:40:00,70.6,60.3,29.84,South,171,1.0,6.0,70,0.00,,,0.00,Wunderground v.1.15,2013-10-18 19:40:00,
2013-10-18 14:50:00,71.0,60.3,29.84,South,171,1.0,1.0,69,0.00,,,0.00,Wunderground v.1.15,2013-10-18 19:50:00,
2013-10-18 15:00:00,71.2,61.3,29.84,South,171,0.0,1.0,71,0.00,,,0.00,Wunderground v.1.15,2013-10-18 20:00:00,
2013-10-18 15:10:00,71.5,61.2,29.83,South,169,1.0,1.0,70,0.00,,,0.00,Wunderground v.1.15,2013-10-18 20:10:00,
2013-10-18 15:20:00,72.1,61.4,29.83,SSE,167,4.0,4.0,69,0.00,,,0.00,Wunderground v.1.15,2013-10-18 20:20:00,
2013-10-18 15:30:00,72.5,61.7,29.83,SSE,167,0.0,1.0,69,0.00,,,0.00,Wunderground v.1.15,2013-10-18 20:30:00,
2013-10-18 15:40:00,73.0,61.8,29.83,SSE,167,1.0,1.0,68,0.00,,,0.00,Wunderground v.1.15,2013-10-18 20:40:00,
2013-10-18 15:50:00,73.0,61.8,29.83,SSE,168,1.0,1.0,68,0.00,,,0.00,Wunderground v.1.15,2013-10-18 20:50:00,
2013-10-18 16:00:00,72.7,61.9,29.83,SSE,167,1.0,1.0,69,0.00,,,0.00,Wunderground v.1.15,2013-10-18 21:00:00,
2013-10-18 16:10:00,72.8,61.6,29.83,SSE,166,1.0,1.0,68,0.00,,,0.00,Wunderground v.1.15,2013-10-18 21:10:00,
2013-10-18 16:20:00,72.7,61.5,29.83,SSE,166,0.0,1.0,68,0.00,,,0.00,Wunderground v.1.15,2013-10-18 21:20:00,
2013-10-18 16:30:00,72.9,62.5,29.83,SSE,166,0.0,1.0,70,0.00,,,0.00,Wunderground v.1.15,2013-10-18 21:30:00,
2013-10-18 16:40:00,73.3,62.1,29.83,SSE,166,0.0,1.0,68,0.00,,,0.00,Wunderground v.1.15,2013-10-18 21:40:00,
2013-10-18 16:50:00,73.6,62.8,29.83,SSE,166,0.0,1.0,69,0.00,,,0.00,Wunderground v.1.15,2013-10-18 21:50:00,
2013-10-18 17:00:00,73.4,62.6,29.84,SSE,163,1.0,1.0,69,0.00,,,0.00,Wunderground v.1.15,2013-10-18 22:00:00,
2013-10-18 17:10:00,73.3,62.5,29.84,SSE,163,0.0,1.0,69,0.00,,,0.00,Wunderground v.1.15,2013-10-18 22:10:00,
2013-10-18 17:20:00,73.3,62.5,29.84,SSE,153,1.0,1.0,69,0.00,,,0.00,Wunderground v.1.15,2013-10-18 22:20:00,
2013-10-18 17:30:00,73.2,63.2,29.84,SE,140,1.0,1.0,71,0.00,,,0.00,Wunderground v.1.15,2013-10-18 22:30:00,
2013-10-18 17:40:00,72.9,62.5,29.84,SE,140,0.0,1.0,70,0.00,,,0.00,Wunderground v.1.15,2013-10-18 22:40:00,
2013-10-18 17:50:00,72.5,62.6,29.84,SE,140,0.0,1.0,71,0.00,,,0.00,Wunderground v.1.15,2013-10-18 22:50:00,
2013-10-18 18:10:00,72.0,63.3,29.85,SE,140,0.0,1.0,74,0.00,,,0.00,Wunderground v.1.15,2013-10-18 23:10:00,
2013-10-18 18:20:00,71.6,63.3,29.85,SE,140,0.0,1.0,75,0.00,,,0.00,Wunderground v.1.15,2013-10-18 23:20:00,
2013-10-18 18:30:00,71.1,63.1,29.85,SE,140,0.0,1.0,76,0.00,,,0.00,Wunderground v.1.15,2013-10-18 23:30:00,
2013-10-18 18:40:00,70.7,63.1,29.85,SE,140,0.0,1.0,77,0.00,,,0.00,Wunderground v.1.15,2013-10-18 23:40:00,
2013-10-18 18:50:00,70.4,62.8,29.86,SE,136,1.0,1.0,77,0.00,,,0.00,Wunderground v.1.15,2013-10-18 23:50:00,
2013-10-18 19:00:00,70.1,62.9,29.87,SE,129,3.0,5.0,78,0.00,,,0.00,Wunderground v.1.15,2013-10-19 00:00:00,
2013-10-18 19:10:00,69.9,62.4,29.88,SE,128,1.0,1.0,77,0.00,,,0.00,Wunderground v.1.15,2013-10-19 00:10:00,
2013-10-18 19:20:00,69.6,62.4,29.88,East,93,6.0,6.0,78,0.00,,,0.00,Wunderground v.1.15,2013-10-19 00:20:00,
2013-10-18 19:30:00,69.0,62.2,29.88,ENE,78,5.0,5.0,79,0.00,,,0.00,Wunderground v.1.15,2013-10-19 00:30:00,
2013-10-18 19:40:00,68.4,61.6,29.88,ENE,77,2.0,2.0,79,0.00,,,0.00,Wunderground v.1.15,2013-10-19 00:40:00,
2013-10-18 19:50:00,68.0,61.6,29.89,ENE,76,1.0,1.0,80,0.00,,,0.00,Wunderground v.1.15,2013-10-19 00:50:00,
2013-10-18 20:00:00,67.7,61.3,29.90,ENE,76,0.0,1.0,80,0.00,,,0.00,Wunderground v.1.15,2013-10-19 01:00:00,
2013-10-18 20:10:00,67.4,61.7,29.90,ENE,76,1.0,1.0,82,0.00,,,0.00,Wunderground v.1.15,2013-10-19 01:10:00,
2013-10-18 20:20:00,66.8,61.8,29.91,ENE,76,0.0,1.0,84,0.00,,,0.00,Wunderground v.1.15,2013-10-19 01:20:00,
2013-10-18 20:30:00,65.6,59.3,29.94,NNW,342,4.0,7.0,80,0.00,,,0.01,Wunderground v.1.15,2013-10-19 01:30:00,
2013-10-18 20:40:00,59.8,53.3,29.96,North,9,13.0,13.0,79,0.00,,,0.01,Wunderground v.1.15,2013-10-19 01:40:00,
2013-10-18 20:50:00,56.7,51.9,29.98,NW,326,11.0,11.0,84,0.00,,,0.01,Wunderground v.1.15,2013-10-19 01:50:00,
2013-10-18 21:00:00,55.4,51.3,29.99,NNE,15,10.0,10.0,86,0.00,,,0.01,Wunderground v.1.15,2013-10-19 02:00:00,
2013-10-18 21:10:00,54.8,50.7,30.00,North,355,9.0,11.0,86,0.00,,,0.01,Wunderground v.1.15,2013-10-19 02:10:00,
2013-10-18 21:20:00,53.7,49.6,30.01,North,5,13.0,13.0,86,0.00,,,0.01,Wunderground v.1.15,2013-10-19 02:20:00,
2013-10-18 21:30:00,52.4,48.3,30.02,NNW,338,13.0,13.0,86,0.00,,,0.01,Wunderground v.1.15,2013-10-19 02:30:00,
2013-10-18 21:40:00,51.5,47.5,30.03,North,355,13.0,13.0,86,0.00,,,0.01,Wunderground v.1.15,2013-10-19 02:40:00,
2013-10-18 21:50:00,50.6,46.9,30.04,NNE,14,13.0,13.0,87,0.00,,,0.01,Wunderground v.1.15,2013-10-19 02:50:00,
2013-10-18 22:00:00,50.4,46.7,30.05,North,11,10.0,10.0,87,0.00,,,0.01,Wunderground v.1.15,2013-10-19 03:00:00,
2013-10-18 22:10:00,50.2,46.8,30.06,North,5,10.0,10.0,88,0.00,,,0.01,Wunderground v.1.15,2013-10-19 03:10:00,
2013-10-18 22:20:00,50.1,46.4,30.06,North,5,11.0,11.0,87,0.00,,,0.01,Wunderground v.1.15,2013-10-19 03:20:00,
2013-10-18 22:30:00,50.0,46.3,30.07,NNW,346,10.0,10.0,87,0.00,,,0.01,Wunderground v.1.15,2013-10-19 03:30:00,
2013-10-18 22:40:00,49.6,45.3,30.08,North,355,12.0,12.0,85,0.00,,,0.01,Wunderground v.1.15,2013-10-19 03:40:00,
2013-10-18 22:50:00,49.4,45.1,30.08,NNE,28,10.0,12.0,85,0.00,,,0.01,Wunderground v.1.15,2013-10-19 03:50:00,
2013-10-18 23:00:00,49.3,45.0,30.09,NNE,12,9.0,9.0,85,0.00,,,0.01,Wunderground v.1.15,2013-10-19 04:00:00,
2013-10-18 23:10:00,49.2,44.6,30.09,NNE,15,10.0,10.0,84,0.00,,,0.01,Wunderground v.1.15,2013-10-19 04:10:00,
2013-10-18 23:20:00,49.1,44.8,30.09,NNE,13,11.0,11.0,85,0.00,,,0.01,Wunderground v.1.15,2013-10-19 04:20:00,
2013-10-18 23:30:00,49.3,45.0,30.10,NNE,25,9.0,9.0,85,0.00,,,0.01,Wunderground v.1.15,2013-10-19 04:30:00,
2013-10-18 23:40:00,49.3,44.7,30.11,NNW,340,7.0,8.0,84,0.00,,,0.01,Wunderground v.1.15,2013-10-19 04:40:00,
2013-10-18 23:50:00,49.3,44.7,30.10,NNW,328,7.0,8.0,84,0.00,,,0.01,Wunderground v.1.15,2013-10-19 04:50:00,